Wind_Speed
3 4 4 8 7 6 6 5 6 3 1 2 4 4 5 6 7 7 8 8 8 9 9 9 9 9 10 12 13 13 13 14 13 13 14 11 15 10 8 9 8 7 6
5 5 4 6 5 7 5 3 3 2 1 1 2 4 5 6 6 7 8 8 7 7 8 8 9 7 7 8 10 11 14 14 13 13 11 17 11 12 12 8 9 8 7
7 2 4 6 5 6 5 3 3 3 2 1 3 5 5 5 6 5 6 7 8 7 6 6 8 6 6 7 8 9 9 11 10 11 12 11 13 14 11 13 13 12 13
5 3 4 6 5 5 3 5 5 5 4 4 3 3 3 3 3 3 4 5 7 8 8 8 7 6 7 8 8 8 8 8 9 11 12 11 11 14 15 14 12 14 12
4 3 4 6 5 4 4 6 6 5 5 5 5 3 1 3 5 5 3 3 5 6 7 8 8 8 8 9 9 9 9 9 10 11 11 12 12 13 14 16 16 14 17
7 5 6 6 6 6 4 4 5 5 0 5 6 5 2 2 5 7 7 6 6 5 5 6 7 7 8 9 10 10 10 10 11 13 13 13 13 16 12 17 21 20 17
9 10 7 7 7 6 4 3 4 2 4 3 5 6 7 7 9 10 14 19 10 7 5 6 6 7 7 8 9 9 10 11 13 14 15 15 16 15 18 16 18 18 19
12 11 10 10 9 8 6 5 7 1 3 1 3 5 8 11 11 11 8 8 8 7 6 5 5 6 8 10 11 12 13 14 15 15 15 15 15 15 17 18 18 18 17
12 19 14 14 12 12 10 8 8 5 3 2 4 6 7 7 8 9 9 12 5 4 4 3 2 4 6 8 11 12 13 14 15 15 15 16 15 15 17 17 17 17 17
19 16 12 16 15 14 14 12 12 7 6 6 7 8 10 11 11 9 6 9 11 8 8 10 9 11 12 10 10 11 13 14 14 14 14 16 16 16 17 17 19 18 18
18 15 14 19 16 17 15 17 15 13 10 10 10 11 12 13 14 14 13 12 12 14 15 16 16 16 15 12 11 12 12 13 14 15 15 16 18 19 19 19 20 19 16
18 16 14 17 18 19 20 19 19 18 16 16 15 15 16 16 16 17 17 17 15 14 14 16 17 18 18 15 16 15 14 14 15 16 16 17 18 19 20 20 21 21 22
19 21 20 18 20 19 20 20 21 23 24 27 26 20 18 18 18 18 18 19 18 18 20 21 21 19 20 18 18 17 17 17 17 16 17 18 19 19 20 22 23 23 23
22 23 23 23 23 23 21 17 21 23 28 24 25 22 20 19 20 18 16 17 19 21 21 23 24 24 24 21 21 20 19 21 17 18 19 19 21 21 21 23 25 25 25
25 27 28 28 27 26 23 23 23 29 28 28 28 24 22 19 19 17 19 21 22 23 25 26 27 27 27 26 26 23 21 22 21 22 23 22 23 23 25 26 27 28 27
38 39 33 30 30 28 24 22 25 29 29 29 28 24 23 21 22 22 22 24 26 28 30 31 31 29 28 30 26 26 25 24 25 26 25 28 27 27 26 28 29 30 30
35 33 33 35 34 36 37 29 24 24 24 24 23 24 23 24 24 26 26 28 30 31 34 35 32 34 33 33 30 31 26 26 27 27 30 33 34 27 27 29 31 31 31
33 30 33 35 31 27 30 31 31 29 26 26 23 22 23 25 26 26 27 29 29 28 28 28 29 31 34 34 29 28 28 28 27 29 34 37 33 39 31 31 31 33 32
31 30 29 30 27 17 21 25 30 26 23 23 23 23 24 27 28 26 24 23 24 24 23 23 23 22 24 25 26 28 28 31 29 30 28 35 36 38 34 30 29 29 30
5 9 12 16 13 16 19 19 19 20 20 20 22 22 23 22 21 20 19 17 19 19 19 20 19 20 22 23 23 26 27 28 29 28 30 34 32 40 47 37 40 36 28
4 2 3 2 6 9 12 14 15 16 16 15 13 19 18 16 14 13 14 16 17 16 15 15 14 17 21 22 24 22 26 23 23 28 36 29 27 35 30 40 35 37 30
10 10 10 12 14 12 14 15 15 14 11 13 13 18 14 14 14 14 15 15 16 16 16 16 16 19 20 22 23 22 23 23 25 26 27 30 31 30 30 25 32 38 33
20 18 17 16 16 15 15 13 12 13 13 15 15 17 14 15 15 16 17 18 18 19 20 21 21 23 26 26 26 25 26 27 28 29 29 31 32 30 28 30 31 34 35
22 22 20 18 17 17 16 14 14 14 15 15 15 15 14 15 17 17 19 20 22 23 24 25 26 26 27 28 29 29 30 31 33 35 35 34 35 36 32 33 35 35 38
20 20 18 18 17 17 16 17 18 18 16 20 16 17 17 17 18 23 26 27 26 26 27 27 28 28 28 29 30 31 34 33 36 36 35 38 40 39 40 41 42 44 42
17 16 17 16 16 16 18 20 17 17 17 17 13 15 18 24 25 24 22 19 16 14 13 15 17 19 20 20 21 23 25 24 25 24 25 28 28 28 31 37 40 40 43
Wind_Direction
240 256 318 340 333 346 11 24 53 48 83 158 183 198 224 247 251 254 256 264 274 271 262 262 258 253 248 249 249 249 252 250 245 251 249 244 239 259 249 258 251 255 249
257 240 349 330 342 358 0 5 1 12 17 277 255 246 233 241 252 260 261 259 262 269 260 253 258 253 247 245 247 249 247 249 252 255 245 230 257 254 272 250 253 249 242
283 279 334 333 339 353 3 359 316 301 293 224 240 233 230 233 240 237 248 251 254 255 255 258 254 250 252 244 242 242 247 254 244 254 248 234 249 256 258 254 259 261 275
264 253 311 329 321 348 14 18 330 299 267 258 229 231 244 239 242 243 238 241 247 252 257 256 258 258 252 251 254 255 254 248 240 248 256 255 261 247 254 254 252 280 276
253 235 278 302 303 310 335 357 3 347 267 235 210 198 196 312 312 301 277 252 248 251 251 255 255 254 256 258 258 260 263 264 259 255 255 258 259 258 244 263 252 254 271
298 287 253 278 285 308 323 339 348 4 170 228 236 228 234 284 317 319 312 301 289 268 261 258 261 263 262 259 259 259 259 261 263 263 261 258 253 259 248 236 254 263 258
267 271 249 263 275 294 301 318 285 44 97 168 228 261 274 280 277 282 282 292 303 292 271 259 256 260 264 268 269 269 270 271 269 266 262 260 256 250 243 253 256 245 263
251 265 254 245 260 266 259 268 262 291 91 84 256 259 264 274 280 285 281 267 271 283 282 279 276 269 263 260 261 265 269 272 274 274 272 269 260 255 248 246 240 246 254
254 291 281 252 248 256 254 252 250 246 236 265 291 294 291 288 283 280 276 272 204 275 279 285 309 335 310 278 265 262 265 271 273 271 269 265 257 250 248 247 245 252 252
266 274 264 263 253 250 252 247 248 242 250 260 273 289 292 295 294 286 280 258 256 251 281 277 280 301 299 293 289 278 271 273 276 275 273 264 258 251 248 247 249 251 254
267 262 276 250 242 247 252 254 250 249 252 266 280 293 291 293 288 279 274 265 258 262 280 280 282 290 296 286 283 287 280 272 270 272 272 273 269 262 255 250 252 252 247
250 266 268 248 254 255 255 249 250 248 255 268 278 285 289 291 292 285 278 273 275 278 282 285 277 277 277 285 280 283 285 283 278 278 279 276 271 266 261 257 255 254 251
251 268 264 255 250 250 255 257 255 256 265 271 278 277 279 287 289 284 282 278 276 278 283 290 290 290 277 279 276 270 282 279 280 279 277 275 271 267 265 262 259 257 255
237 251 253 258 252 249 247 246 262 269 273 274 258 268 276 282 280 274 273 269 272 279 283 281 283 285 289 283 282 273 271 282 268 279 283 280 278 272 267 263 262 260 257
237 247 254 255 253 250 241 242 262 265 265 264 259 261 268 271 267 265 272 279 279 276 275 279 283 279 277 278 283 279 274 275 271 281 277 279 277 270 265 265 263 260 258
259 255 253 252 249 242 244 252 253 261 261 259 258 262 270 271 276 275 278 279 281 281 279 277 277 278 278 281 275 279 272 277 269 274 264 267 268 269 270 268 264 259 260
255 252 240 242 239 240 244 244 266 258 256 259 263 270 270 274 276 280 285 288 285 283 284 279 274 274 277 273 268 263 276 275 277 267 261 263 261 261 264 269 269 264 261
240 234 236 238 239 246 252 238 258 257 264 267 267 271 274 279 284 289 292 293 289 286 283 280 280 274 273 265 267 267 273 271 268 262 275 258 267 265 255 261 264 265 266
230 228 229 231 243 260 235 236 258 258 261 268 274 275 280 285 288 291 293 291 289 286 282 277 273 275 273 268 271 269 267 269 262 270 275 269 272 256 257 249 256 254 259
225 221 208 221 236 239 241 245 251 257 264 273 279 283 290 290 290 294 295 296 294 288 285 279 272 271 278 280 278 279 278 273 273 278 273 274 271 268 262 257 251 241 254
67 64 49 4 301 283 272 279 278 278 274 271 281 280 280 280 284 281 280 283 290 300 301 298 297 287 280 283 282 288 278 288 290 272 272 288 277 282 279 280 255 271 248
315 324 321 316 310 302 294 286 272 265 258 264 260 272 273 278 283 289 291 294 296 295 294 287 285 282 283 289 289 286 286 286 282 281 276 278 288 288 287 289 280 276 263
287 286 283 281 276 274 277 271 255 269 266 266 265 268 272 271 272 284 289 292 293 295 295 292 288 285 285 289 290 288 285 285 290 289 287 288 289 286 285 285 279 273 258
276 274 270 270 269 272 267 261 258 252 265 265 265 270 277 281 284 286 289 292 293 293 292 288 286 284 284 286 288 288 293 292 295 290 292 296 292 287 288 285 284 276 274
277 275 272 267 263 259 255 251 251 263 259 257 248 272 275 278 282 289 292 291 289 287 286 286 287 286 283 282 286 286 286 284 294 295 291 294 288 288 286 281 281 279 281
266 256 245 250 246 240 240 247 253 259 258 259 262 271 284 286 290 292 294 297 299 299 296 297 296 294 296 297 296 294 294 297 297 298 300 299 300 304 294 282 280 280 281
Height
3160 3162 3160 3158 3157 3154 3152 3151 3150 3150 3149 3149 3150 3152 3153 3154 3155 3154 3155 3155 3155 3155 3155 3155 3155 3155 3155 3156 3156 3156 3157 3158 3158 3158 3159 3158 3159 3159 3160 3161 3161 3162 3162
3160 3159 3157 3157 3155 3153 3152 3151 3151 3150 3150 3150 3150 3151 3151 3152 3152 3153 3153 3153 3153 3153 3153 3154 3153 3153 3154 3154 3154 3154 3155 3155 3156 3156 3157 3157 3157 3157 3158 3159 3160 3161 3162
3159 3158 3157 3156 3155 3154 3152 3150 3150 3150 3150 3149 3150 3150 3150 3150 3150 3150 3151 3152 3151 3151 3151 3152 3152 3152 3152 3153 3153 3152 3152 3153 3154 3155 3154 3155 3156 3156 3157 3157 3158 3159 3159
3157 3156 3156 3155 3155 3153 3152 3150 3150 3150 3149 3150 3150 3151 3151 3150 3149 3148 3148 3148 3149 3149 3150 3150 3150 3149 3150 3151 3151 3151 3151 3151 3152 3153 3153 3153 3153 3154 3154 3155 3154 3155 3155
3155 3153 3153 3154 3153 3152 3151 3150 3151 3148 3147 3148 3149 3149 3150 3151 3152 3150 3148 3147 3147 3147 3147 3148 3147 3147 3148 3148 3148 3148 3149 3150 3150 3150 3150 3150 3150 3151 3152 3152 3152 3152 3153
3151 3151 3151 3151 3151 3152 3150 3149 3149 3148 3146 3146 3148 3148 3148 3148 3150 3151 3150 3148 3147 3146 3145 3145 3145 3145 3145 3146 3146 3146 3146 3146 3147 3147 3147 3146 3147 3147 3148 3149 3149 3149 3149
3148 3150 3148 3148 3149 3150 3149 3149 3149 3147 3144 3145 3147 3148 3148 3148 3147 3146 3147 3148 3147 3145 3144 3143 3143 3143 3143 3144 3144 3144 3145 3145 3145 3145 3144 3143 3143 3143 3145 3145 3145 3146 3145
3144 3144 3143 3145 3146 3147 3147 3147 3149 3146 3143 3145 3146 3146 3146 3146 3145 3146 3145 3144 3144 3144 3143 3143 3142 3141 3141 3141 3141 3141 3141 3141 3141 3141 3140 3140 3139 3139 3140 3140 3141 3141 3141
3142 3142 3142 3142 3143 3144 3144 3145 3147 3145 3143 3144 3144 3144 3143 3142 3142 3142 3142 3142 3140 3141 3141 3140 3140 3139 3139 3138 3137 3137 3137 3137 3137 3136 3136 3136 3135 3135 3136 3137 3137 3138 3138
3138 3138 3137 3138 3138 3140 3141 3142 3143 3141 3142 3142 3143 3142 3141 3140 3141 3140 3140 3140 3140 3139 3139 3138 3137 3137 3136 3135 3134 3133 3133 3133 3133 3133 3132 3132 3131 3131 3132 3133 3133 3134 3134
3132 3133 3132 3134 3134 3135 3137 3138 3138 3139 3139 3140 3140 3139 3138 3137 3136 3137 3137 3137 3136 3136 3136 3135 3135 3134 3133 3132 3131 3130 3129 3129 3129 3129 3128 3128 3128 3128 3128 3129 3129 3130 3130
3128 3128 3128 3130 3131 3131 3133 3135 3135 3135 3135 3136 3135 3135 3134 3133 3133 3133 3133 3133 3132 3132 3131 3130 3129 3130 3129 3128 3127 3126 3125 3125 3124 3124 3124 3124 3124 3124 3125 3126 3126 3126 3126
3124 3124 3125 3125 3127 3128 3129 3130 3130 3132 3131 3129 3130 3132 3131 3129 3129 3129 3129 3129 3128 3127 3127 3126 3125 3124 3124 3123 3122 3121 3120 3120 3120 3120 3119 3118 3117 3118 3119 3120 3120 3120 3120
3116 3117 3117 3118 3120 3122 3122 3123 3124 3126 3125 3124 3124 3125 3126 3125 3124 3124 3123 3123 3122 3121 3120 3119 3118 3118 3118 3117 3116 3116 3116 3115 3114 3115 3114 3113 3112 3111 3112 3112 3113 3113 3112
3108 3109 3111 3112 3114 3115 3115 3116 3118 3119 3119 3119 3120 3120 3119 3119 3119 3117 3117 3118 3117 3115 3114 3113 3112 3111 3110 3110 3110 3110 3110 3109 3109 3108 3108 3106 3104 3103 3103 3104 3105 3104 3104
3100 3101 3102 3104 3106 3106 3107 3107 3109 3110 3110 3112 3113 3114 3113 3113 3113 3112 3111 3111 3110 3109 3107 3105 3105 3104 3104 3103 3103 3102 3101 3101 3101 3101 3099 3098 3097 3096 3096 3097 3095 3096 3095
3089 3091 3093 3094 3096 3096 3099 3100 3102 3103 3103 3104 3105 3106 3106 3107 3106 3106 3104 3103 3101 3099 3098 3097 3096 3097 3096 3097 3095 3093 3092 3093 3092 3091 3091 3090 3089 3089 3090 3090 3089 3088 3088
3080 3082 3084 3087 3088 3088 3090 3092 3096 3096 3097 3097 3099 3099 3099 3099 3098 3097 3096 3093 3092 3090 3090 3089 3088 3088 3087 3087 3086 3086 3085 3085 3083 3082 3082 3080 3080 3079 3079 3080 3080 3080 3081
3069 3072 3074 3077 3080 3080 3083 3087 3089 3090 3091 3092 3093 3093 3092 3092 3090 3088 3087 3085 3084 3081 3080 3080 3079 3079 3080 3079 3078 3077 3075 3073 3074 3072 3071 3073 3072 3069 3069 3070 3071 3070 3071
3065 3065 3066 3068 3073 3075 3079 3081 3083 3085 3086 3086 3087 3086 3084 3084 3083 3081 3080 3078 3077 3075 3075 3074 3072 3073 3073 3072 3070 3069 3067 3067 3065 3063 3063 3062 3060 3058 3056 3056 3056 3056 3059
3070 3072 3073 3074 3075 3076 3076 3078 3079 3079 3079 3079 3079 3078 3080 3079 3079 3078 3075 3074 3073 3072 3071 3070 3067 3068 3068 3066 3064 3062 3061 3057 3056 3055 3054 3053 3051 3051 3049 3048 3046 3048 3048
3068 3068 3070 3071 3072 3072 3073 3073 3073 3075 3074 3073 3074 3073 3075 3074 3073 3072 3071 3069 3068 3067 3067 3064 3062 3063 3063 3060 3058 3056 3054 3051 3048 3047 3046 3045 3043 3041 3040 3039 3039 3038 3038
3067 3067 3066 3067 3067 3068 3068 3068 3070 3069 3069 3069 3070 3069 3069 3068 3067 3066 3066 3064 3063 3061 3061 3059 3057 3057 3055 3053 3051 3049 3046 3044 3043 3041 3040 3038 3035 3032 3032 3030 3030 3028 3027
3060 3061 3061 3061 3061 3062 3063 3063 3062 3064 3065 3065 3064 3064 3064 3063 3062 3063 3062 3060 3057 3056 3055 3053 3052 3049 3048 3046 3044 3041 3038 3036 3034 3032 3029 3026 3026 3024 3022 3019 3018 3018 3016
3052 3052 3053 3054 3054 3055 3057 3057 3057 3059 3059 3059 3059 3059 3058 3058 3057 3056 3054 3052 3049 3047 3047 3045 3042 3039 3038 3036 3034 3031 3028 3025 3023 3021 3019 3018 3014 3011 3010 3008 3006 3004 3003
3046 3046 3047 3048 3049 3048 3050 3051 3053 3053 3054 3054 3054 3053 3052 3051 3050 3047 3044 3043 3042 3039 3037 3036 3033 3030 3028 3026 3024 3022 3019 3016 3014 3011 3009 3006 3003 3000 2998 2995 2993 2990 2989